Location: Navajo
(48.7922°N, 105.0603°W)
Time: 05:20:15
(UTC+00:00)

DUCHIFAT 1 - Pass Details

Date: 28 June 2022
Orbit: 580 x 596 km, 98.0° (Epoch: 16 August)

Event Time Altitude Azimuth Distance (km) Brightness Sun altitude
Rises 10:03:15 0° 10° (N) 2,841 ? -7.5°
Reaches altitude 10° 10:05:26 10° 6° (N) 1,938 ? -7.3°
Maximum altitude 10:09:34 58° 288° (WNW) 701 ? -6.9°
Drops below altitude 10° 10:13:41 10° 210° (SSW) 1,930 ? -6.4°
Enters shadow 10:14:16 - 209° (SSW) 2,169 ? -6.3°
